Time,TemperatureF,DewpointF,PressureIn,WindDirection,WindDirectionDegrees,WindSpeedMPH,WindSpeedGustMPH,Humidity,HourlyPrecipIn,Conditions,Clouds,dailyrainin,SoftwareType,DateUTC
2013-07-22 00:02:00,84.0,-99.9,29.96,SE,146,14.0,22.0,-999,-99.99,,,-99.99,,2013-07-22 05:02:00,
2013-07-22 00:11:00,84.0,-99.9,29.96,SE,145,14.0,21.0,-999,-99.99,,,-99.99,,2013-07-22 05:11:00,
2013-07-22 00:32:00,84.0,-99.9,29.96,SSE,147,17.0,23.0,-999,-99.99,,,-99.99,,2013-07-22 05:32:00,
2013-07-22 00:43:00,84.0,-99.9,29.96,SSE,150,15.0,21.0,-999,-99.99,,,-99.99,,2013-07-22 05:43:00,
2013-07-22 00:52:00,84.0,-99.9,29.96,SSE,150,16.0,21.0,-999,-99.99,,,-99.99,,2013-07-22 05:52:00,
2013-07-22 01:01:00,84.0,-99.9,29.96,SSE,151,13.0,20.0,-999,-99.99,,,-99.99,,2013-07-22 06:01:00,
2013-07-22 01:11:00,84.0,-99.9,29.96,SSE,152,18.0,23.0,-999,-99.99,,,-99.99,,2013-07-22 06:11:00,
2013-07-22 01:33:00,84.0,-99.9,29.96,SSE,158,15.0,19.0,-999,-99.99,,,-99.99,,2013-07-22 06:33:00,
2013-07-22 01:43:00,84.0,-99.9,29.96,SSE,153,17.0,21.0,-999,-99.99,,,-99.99,,2013-07-22 06:43:00,
2013-07-22 01:52:00,84.0,-99.9,29.96,SSE,154,17.0,23.0,-999,-99.99,,,-99.99,,2013-07-22 06:52:00,
2013-07-22 02:01:00,84.0,-99.9,29.96,SSE,157,12.0,20.0,-999,-99.99,,,-99.99,,2013-07-22 07:01:00,
2013-07-22 02:12:00,84.0,-99.9,29.96,SSE,156,14.0,18.0,-999,-99.99,,,-99.99,,2013-07-22 07:12:00,
2013-07-22 02:33:00,84.0,-99.9,29.96,SSE,156,17.0,19.0,-999,-99.99,,,-99.99,,2013-07-22 07:33:00,
2013-07-22 02:43:00,83.0,-99.9,29.95,SSE,155,14.0,20.0,-999,-99.99,,,-99.99,,2013-07-22 07:43:00,
2013-07-22 02:53:00,84.0,-99.9,29.95,SSE,153,18.0,24.0,-999,-99.99,,,-99.99,,2013-07-22 07:53:00,
2013-07-22 03:02:00,83.0,-99.9,29.94,SSE,151,15.0,22.0,-999,-99.99,,,-99.99,,2013-07-22 08:02:00,
2013-07-22 03:11:00,84.0,-99.9,29.94,SSE,150,17.0,24.0,-999,-99.99,,,-99.99,,2013-07-22 08:11:00,
2013-07-22 03:32:00,83.0,-99.9,29.93,SSE,151,14.0,22.0,-999,-99.99,,,-99.99,,2013-07-22 08:32:00,
2013-07-22 03:43:00,83.0,-99.9,29.93,SSE,152,19.0,25.0,-999,-99.99,,,-99.99,,2013-07-22 08:43:00,
2013-07-22 03:52:00,83.0,-99.9,29.93,SSE,150,17.0,21.0,-999,-99.99,,,-99.99,,2013-07-22 08:52:00,
2013-07-22 04:02:00,83.0,-99.9,29.93,SSE,155,18.0,24.0,-999,-99.99,,,-99.99,,2013-07-22 09:02:00,
2013-07-22 04:11:00,83.0,-99.9,29.93,SSE,158,17.0,24.0,-999,-99.99,,,-99.99,,2013-07-22 09:11:00,
2013-07-22 04:33:00,83.0,-99.9,29.93,SSE,155,18.0,23.0,-999,-99.99,,,-99.99,,2013-07-22 09:33:00,
2013-07-22 04:42:00,83.0,-99.9,29.93,SSE,157,15.0,21.0,-999,-99.99,,,-99.99,,2013-07-22 09:42:00,
2013-07-22 04:52:00,83.0,-99.9,29.93,SSE,161,15.0,22.0,-999,-99.99,,,-99.99,,2013-07-22 09:52:00,
2013-07-22 05:02:00,83.0,-99.9,29.93,SSE,153,13.0,18.0,-999,-99.99,,,-99.99,,2013-07-22 10:02:00,
2013-07-22 05:11:00,83.0,-99.9,29.93,SSE,157,14.0,21.0,-999,-99.99,,,-99.99,,2013-07-22 10:11:00,
2013-07-22 05:32:00,83.0,-99.9,29.93,SSE,161,14.0,20.0,-999,-99.99,,,-99.99,,2013-07-22 10:32:00,
2013-07-22 05:43:00,83.0,-99.9,29.93,SSE,156,15.0,22.0,-999,-99.99,,,-99.99,,2013-07-22 10:43:00,
2013-07-22 05:53:00,83.0,-99.9,29.93,SSE,156,13.0,19.0,-999,-99.99,,,-99.99,,2013-07-22 10:53:00,
2013-07-22 06:02:00,83.0,-99.9,29.93,SSE,155,15.0,20.0,-999,-99.99,,,-99.99,,2013-07-22 11:02:00,
2013-07-22 06:11:00,83.0,-99.9,29.93,SSE,158,15.0,21.0,-999,-99.99,,,-99.99,,2013-07-22 11:11:00,
2013-07-22 06:32:00,83.0,-99.9,29.94,SSE,157,13.0,17.0,-999,-99.99,,,-99.99,,2013-07-22 11:32:00,
2013-07-22 06:43:00,83.0,-99.9,29.94,SSE,162,13.0,17.0,-999,-99.99,,,-99.99,,2013-07-22 11:43:00,
2013-07-22 06:52:00,83.0,-99.9,29.94,SSE,159,13.0,20.0,-999,-99.99,,,-99.99,,2013-07-22 11:52:00,
2013-07-22 07:02:00,83.0,-99.9,29.94,SSE,155,14.0,20.0,-999,-99.99,,,-99.99,,2013-07-22 12:02:00,
2013-07-22 07:12:00,83.0,-99.9,29.95,SSE,159,13.0,19.0,-999,-99.99,,,-99.99,,2013-07-22 12:12:00,
2013-07-22 07:33:00,83.0,-99.9,29.95,SSE,156,12.0,16.0,-999,-99.99,,,-99.99,,2013-07-22 12:33:00,
2013-07-22 07:43:00,83.0,-99.9,29.95,SSE,159,12.0,19.0,-999,-99.99,,,-99.99,,2013-07-22 12:43:00,
2013-07-22 07:53:00,83.0,-99.9,29.95,SSE,158,11.0,17.0,-999,-99.99,,,-99.99,,2013-07-22 12:53:00,
2013-07-22 08:01:00,83.0,-99.9,29.96,SSE,163,10.0,15.0,-999,-99.99,,,-99.99,,2013-07-22 13:01:00,
2013-07-22 08:11:00,84.0,-99.9,29.96,SSE,153,10.0,16.0,-999,-99.99,,,-99.99,,2013-07-22 13:11:00,
2013-07-22 08:32:00,84.0,-99.9,29.97,SSE,158,9.0,13.0,-999,-99.99,,,-99.99,,2013-07-22 13:32:00,
2013-07-22 08:43:00,84.0,-99.9,29.98,SSE,151,13.0,18.0,-999,-99.99,,,-99.99,,2013-07-22 13:43:00,
2013-07-22 08:53:00,84.0,-99.9,29.98,SSE,152,11.0,17.0,-999,-99.99,,,-99.99,,2013-07-22 13:53:00,
2013-07-22 09:02:00,84.0,-99.9,29.98,SSE,152,15.0,18.0,-999,-99.99,,,-99.99,,2013-07-22 14:02:00,
2013-07-22 09:11:00,85.0,-99.9,29.98,SSE,149,13.0,16.0,-999,-99.99,,,-99.99,,2013-07-22 14:11:00,
2013-07-22 09:32:00,85.0,-99.9,29.98,SSE,154,10.0,18.0,-999,-99.99,,,-99.99,,2013-07-22 14:32:00,
2013-07-22 09:43:00,85.0,-99.9,29.98,SE,144,14.0,19.0,-999,-99.99,,,-99.99,,2013-07-22 14:43:00,
2013-07-22 09:53:00,85.0,-99.9,29.98,SE,143,15.0,21.0,-999,-99.99,,,-99.99,,2013-07-22 14:53:00,
2013-07-22 10:02:00,85.0,-99.9,29.98,SSE,152,16.0,20.0,-999,-99.99,,,-99.99,,2013-07-22 15:02:00,
2013-07-22 10:11:00,85.0,-99.9,29.99,SE,143,16.0,19.0,-999,-99.99,,,-99.99,,2013-07-22 15:11:00,
2013-07-22 10:33:00,85.0,-99.9,29.99,SSE,148,15.0,21.0,-999,-99.99,,,-99.99,,2013-07-22 15:33:00,
2013-07-22 10:43:00,85.0,-99.9,30.00,SE,145,14.0,21.0,-999,-99.99,,,-99.99,,2013-07-22 15:43:00,
2013-07-22 10:52:00,86.0,-99.9,30.00,SE,137,14.0,21.0,-999,-99.99,,,-99.99,,2013-07-22 15:52:00,
2013-07-22 11:01:00,86.0,-99.9,30.00,SSE,147,14.0,24.0,-999,-99.99,,,-99.99,,2013-07-22 16:01:00,
2013-07-22 11:11:00,85.0,-99.9,30.00,SSE,152,15.0,21.0,-999,-99.99,,,-99.99,,2013-07-22 16:11:00,
2013-07-22 11:32:00,85.0,-99.9,30.00,SE,143,19.0,25.0,-999,-99.99,,,-99.99,,2013-07-22 16:32:00,
2013-07-22 11:43:00,86.0,-99.9,30.00,SSE,153,16.0,21.0,-999,-99.99,,,-99.99,,2013-07-22 16:43:00,
2013-07-22 11:52:00,86.0,-99.9,30.00,SSE,152,13.0,22.0,-999,-99.99,,,-99.99,,2013-07-22 16:52:00,
2013-07-22 12:02:00,86.0,-99.9,30.00,SSE,150,16.0,21.0,-999,-99.99,,,-99.99,,2013-07-22 17:02:00,
2013-07-22 12:11:00,85.0,-99.9,30.00,SE,145,18.0,24.0,-999,-99.99,,,-99.99,,2013-07-22 17:11:00,
2013-07-22 12:33:00,86.0,-99.9,30.00,SSE,154,16.0,23.0,-999,-99.99,,,-99.99,,2013-07-22 17:33:00,
2013-07-22 12:43:00,86.0,-99.9,30.00,SSE,150,20.0,24.0,-999,-99.99,,,-99.99,,2013-07-22 17:43:00,
2013-07-22 12:52:00,86.0,-99.9,30.00,SSE,149,17.0,24.0,-999,-99.99,,,-99.99,,2013-07-22 17:52:00,
2013-07-22 13:17:00,86.0,-99.9,30.00,SE,139,19.0,28.0,-999,-99.99,,,-99.99,,2013-07-22 18:17:00,
2013-07-22 13:40:00,86.0,-99.9,29.99,SE,144,17.0,23.0,-999,-99.99,,,-99.99,,2013-07-22 18:40:00,
2013-07-22 13:55:00,86.0,-99.9,29.99,SE,136,20.0,25.0,-999,-99.99,,,-99.99,,2013-07-22 18:55:00,
2013-07-22 14:06:00,86.0,-99.9,29.99,SE,140,17.0,23.0,-999,-99.99,,,-99.99,,2013-07-22 19:06:00,
2013-07-22 14:17:00,86.0,-99.9,29.99,SE,141,20.0,25.0,-999,-99.99,,,-99.99,,2013-07-22 19:17:00,
2013-07-22 14:37:00,87.0,-99.9,29.98,SE,133,17.0,23.0,-999,-99.99,,,-99.99,,2013-07-22 19:37:00,
2013-07-22 14:47:00,86.0,-99.9,29.98,SE,127,20.0,26.0,-999,-99.99,,,-99.99,,2013-07-22 19:47:00,
2013-07-22 14:55:00,87.0,-99.9,29.98,SE,141,18.0,24.0,-999,-99.99,,,-99.99,,2013-07-22 19:55:00,
2013-07-22 15:05:00,86.0,-99.9,29.97,SSE,147,19.0,24.0,-999,-99.99,,,-99.99,,2013-07-22 20:05:00,
2013-07-22 15:17:00,86.0,-99.9,29.97,SE,139,19.0,28.0,-999,-99.99,,,-99.99,,2013-07-22 20:17:00,
2013-07-22 15:32:00,87.0,-99.9,29.96,SE,141,17.0,26.0,-999,-99.99,,,-99.99,,2013-07-22 20:32:00,
2013-07-22 15:43:00,86.0,-99.9,29.96,SE,141,20.0,27.0,-999,-99.99,,,-99.99,,2013-07-22 20:43:00,
2013-07-22 15:52:00,86.0,-99.9,29.96,SE,139,21.0,26.0,-999,-99.99,,,-99.99,,2013-07-22 20:52:00,
2013-07-22 16:01:00,86.0,-99.9,29.95,SE,138,21.0,28.0,-999,-99.99,,,-99.99,,2013-07-22 21:01:00,
2013-07-22 16:12:00,86.0,-99.9,29.95,SSE,148,17.0,26.0,-999,-99.99,,,-99.99,,2013-07-22 21:12:00,
2013-07-22 16:33:00,86.0,-99.9,29.94,SE,132,22.0,27.0,-999,-99.99,,,-99.99,,2013-07-22 21:33:00,
2013-07-22 16:43:00,86.0,-99.9,29.94,SSE,147,20.0,26.0,-999,-99.99,,,-99.99,,2013-07-22 21:43:00,
2013-07-22 16:53:00,87.0,-99.9,29.94,SE,146,19.0,24.0,-999,-99.99,,,-99.99,,2013-07-22 21:53:00,
2013-07-22 17:02:00,86.0,-99.9,29.94,SE,142,20.0,26.0,-999,-99.99,,,-99.99,,2013-07-22 22:02:00,
2013-07-22 17:11:00,87.0,-99.9,29.93,SE,144,18.0,26.0,-999,-99.99,,,-99.99,,2013-07-22 22:11:00,
2013-07-22 17:32:00,87.0,-99.9,29.93,SE,136,17.0,27.0,-999,-99.99,,,-99.99,,2013-07-22 22:32:00,
2013-07-22 17:43:00,86.0,-99.9,29.93,SE,139,22.0,26.0,-999,-99.99,,,-99.99,,2013-07-22 22:43:00,
2013-07-22 17:52:00,86.0,-99.9,29.93,SE,137,18.0,28.0,-999,-99.99,,,-99.99,,2013-07-22 22:52:00,
2013-07-22 18:02:00,86.0,-99.9,29.93,SE,137,20.0,29.0,-999,-99.99,,,-99.99,,2013-07-22 23:02:00,
2013-07-22 18:11:00,86.0,-99.9,29.92,SE,137,16.0,26.0,-999,-99.99,,,-99.99,,2013-07-22 23:11:00,
2013-07-22 18:32:00,86.0,-99.9,29.92,SE,137,23.0,30.0,-999,-99.99,,,-99.99,,2013-07-22 23:32:00,
2013-07-22 18:43:00,86.0,-99.9,29.91,SE,142,20.0,27.0,-999,-99.99,,,-99.99,,2013-07-22 23:43:00,
2013-07-22 18:52:00,86.0,-99.9,29.91,SE,143,22.0,28.0,-999,-99.99,,,-99.99,,2013-07-22 23:52:00,
2013-07-22 19:01:00,85.0,-99.9,29.91,SE,138,19.0,30.0,-999,-99.99,,,-99.99,,2013-07-23 00:01:00,
2013-07-22 19:12:00,85.0,-99.9,29.91,SE,140,18.0,28.0,-999,-99.99,,,-99.99,,2013-07-23 00:12:00,
2013-07-22 19:32:00,85.0,-99.9,29.91,SE,139,17.0,27.0,-999,-99.99,,,-99.99,,2013-07-23 00:32:00,
2013-07-22 19:43:00,85.0,-99.9,29.91,SE,140,19.0,28.0,-999,-99.99,,,-99.99,,2013-07-23 00:43:00,
2013-07-22 19:52:00,85.0,-99.9,29.91,SE,137,20.0,25.0,-999,-99.99,,,-99.99,,2013-07-23 00:52:00,
2013-07-22 20:01:00,85.0,-99.9,29.92,SE,143,21.0,26.0,-999,-99.99,,,-99.99,,2013-07-23 01:01:00,
2013-07-22 20:11:00,85.0,-99.9,29.92,SE,143,19.0,25.0,-999,-99.99,,,-99.99,,2013-07-23 01:11:00,
2013-07-22 20:32:00,85.0,-99.9,29.93,SSE,147,17.0,28.0,-999,-99.99,,,-99.99,,2013-07-23 01:32:00,
2013-07-22 20:44:00,85.0,-99.9,29.93,SE,146,17.0,25.0,-999,-99.99,,,-99.99,,2013-07-23 01:44:00,
2013-07-22 20:53:00,84.0,-99.9,29.93,SE,142,15.0,22.0,-999,-99.99,,,-99.99,,2013-07-23 01:53:00,
2013-07-22 21:02:00,84.0,-99.9,29.94,SE,140,15.0,20.0,-999,-99.99,,,-99.99,,2013-07-23 02:02:00,
2013-07-22 21:11:00,84.0,-99.9,29.94,SE,142,13.0,19.0,-999,-99.99,,,-99.99,,2013-07-23 02:11:00,
2013-07-22 21:33:00,84.0,-99.9,29.95,SE,140,13.0,21.0,-999,-99.99,,,-99.99,,2013-07-23 02:33:00,
2013-07-22 21:43:00,84.0,-99.9,29.95,SE,141,12.0,19.0,-999,-99.99,,,-99.99,,2013-07-23 02:43:00,
2013-07-22 21:53:00,84.0,-99.9,29.96,SE,140,15.0,19.0,-999,-99.99,,,-99.99,,2013-07-23 02:53:00,
2013-07-22 22:02:00,84.0,-99.9,29.96,SE,146,14.0,20.0,-999,-99.99,,,-99.99,,2013-07-23 03:02:00,
2013-07-22 22:11:00,84.0,-99.9,29.96,SE,144,15.0,19.0,-999,-99.99,,,-99.99,,2013-07-23 03:11:00,
2013-07-22 22:33:00,84.0,-99.9,29.97,SE,145,16.0,21.0,-999,-99.99,,,-99.99,,2013-07-23 03:33:00,
2013-07-22 22:43:00,84.0,-99.9,29.98,SE,145,16.0,22.0,-999,-99.99,,,-99.99,,2013-07-23 03:43:00,
2013-07-22 22:52:00,84.0,-99.9,29.97,SE,145,15.0,21.0,-999,-99.99,,,-99.99,,2013-07-23 03:52:00,
2013-07-22 23:02:00,84.0,-99.9,29.98,SSE,147,15.0,23.0,-999,-99.99,,,-99.99,,2013-07-23 04:02:00,
2013-07-22 23:11:00,84.0,-99.9,29.98,SE,146,17.0,23.0,-999,-99.99,,,-99.99,,2013-07-23 04:11:00,
2013-07-22 23:32:00,84.0,-99.9,29.98,SE,144,19.0,24.0,-999,-99.99,,,-99.99,,2013-07-23 04:32:00,
2013-07-22 23:43:00,84.0,-99.9,29.98,SSE,150,17.0,24.0,-999,-99.99,,,-99.99,,2013-07-23 04:43:00,
2013-07-22 23:53:00,84.0,-99.9,29.98,SSE,149,18.0,23.0,-999,-99.99,,,-99.99,,2013-07-23 04:53:00,